When you browse on this site, cookies collect data to enhance your experience and personalize the content and advertising you see.
Visit our Privacy Policy to learn more. By continuing to use the site, you agree to this use of cookies and data.
  • In Sweden
  • List of Countries
  • For 7 days
  • Water Temperature
  • Weather Map
  • Weather Widgets
  • user-avatar
    Login

    Hourly Weather Strzemeszno

    Today, 22 February, Saturday

    Time Temperature Precipitation Wind Pressure Humidity
    00:00 0°C° 0 mm 4 mps 760 mmHg 87%
    01:00 0°C° 0 mm 4 mps 760 mmHg 88%
    02:00 0°C° 0 mm 4 mps 759 mmHg 88%
    03:00 -1°C° 0 mm 4 mps 759 mmHg 88%
    04:00 -1°C° 0 mm 5 mps 759 mmHg 88%
    05:00 -1°C° 0 mm 5 mps 758 mmHg 86%
    06:00 0°C° 0 mm 5 mps 758 mmHg 84%
    07:00 -1°C° 0 mm 5 mps 758 mmHg 82%
    08:00 +1°C° 0 mm 6 mps 757 mmHg 76%
    09:00 +2°C° 0 mm 7 mps 757 mmHg 70%
    10:00 +2°C° 0 mm 8 mps 756 mmHg 65%
    11:00 +3°C° 0 mm 9 mps 755 mmHg 63%
    12:00 +5°C° 0 mm 9 mps 754 mmHg 61%
    13:00 +6°C° 0 mm 10 mps 754 mmHg 59%
    14:00 +6°C° 0 mm 9 mps 753 mmHg 57%
    15:00 +6°C° 0 mm 9 mps 752 mmHg 55%
    16:00 +6°C° 0 mm 8 mps 751 mmHg 53%
    17:00 +6°C° 0 mm 9 mps 750 mmHg 56%
    18:00 +6°C° 0 mm 9 mps 750 mmHg 58%
    19:00 +6°C° 0 mm 9 mps 750 mmHg 60%
    20:00 +7°C° 0 mm 9 mps 750 mmHg 60%
    21:00 +7°C° 0 mm 10 mps 749 mmHg 61%
    22:00 +7°C° 0 mm 10 mps 749 mmHg 62%
    23:00 +6°C° 0.6 mm 9 mps 749 mmHg 69%

    Tomorrow, 23 February, Sunday

    Time Temperature Precipitation Wind Pressure Humidity
    00:00 +5°C° 0.6 mm 9 mps 749 mmHg 76%
    01:00 +4°C° 0.6 mm 8 mps 750 mmHg 83%
    02:00 +4°C° 0.1 mm 8 mps 750 mmHg 79%
    03:00 +2°C° 0.1 mm 8 mps 750 mmHg 75%
    04:00 +2°C° 0.1 mm 8 mps 749 mmHg 71%
    05:00 +2°C° 0 mm 8 mps 750 mmHg 70%
    06:00 +2°C° 0 mm 8 mps 750 mmHg 69%
    07:00 +2°C° 0 mm 7 mps 751 mmHg 68%
    08:00 +2°C° 0 mm 8 mps 750 mmHg 68%
    09:00 +2°C° 0 mm 8 mps 750 mmHg 69%
    10:00 +2°C° 0 mm 9 mps 750 mmHg 69%
    11:00 +3°C° 0.1 mm 9 mps 750 mmHg 66%
    12:00 +4°C° 0.1 mm 8 mps 749 mmHg 62%
    13:00 +4°C° 0.1 mm 8 mps 749 mmHg 58%
    14:00 +4°C° 0.1 mm 7 mps 748 mmHg 69%
    15:00 +3°C° 0.1 mm 6 mps 747 mmHg 79%
    16:00 +2°C° 0.1 mm 5 mps 745 mmHg 89%
    17:00 +3°C° 0.8 mm 3 mps 744 mmHg 91%
    18:00 +4°C° 0.8 mm 2 mps 743 mmHg 94%
    19:00 +3°C° 0.8 mm 0 mps 742 mmHg 96%
    20:00 +3°C° 1 mm 2 mps 742 mmHg 96%
    21:00 +2°C° 1 mm 3 mps 741 mmHg 96%
    22:00 0°C° 1 mm 5 mps 741 mmHg 95%
    23:00 -1°C° 0.4 mm 6 mps 743 mmHg 95%

    Day after tomorrow, 24 February, Monday

    Time Temperature Precipitation Wind Pressure Humidity
    00:00 -1°C° 0.4 mm 6 mps 744 mmHg 94%
    01:00 -1°C° 0.4 mm 7 mps 746 mmHg 93%
    02:00 -1°C° 0.1 mm 7 mps 747 mmHg 87%
    03:00 -1°C° 0.1 mm 7 mps 747 mmHg 82%
    04:00 -1°C° 0.1 mm 7 mps 748 mmHg 76%
    05:00 -1°C° 0 mm 7 mps 749 mmHg 77%
    06:00 -1°C° 0 mm 7 mps 751 mmHg 79%
    07:00 -1°C° 0 mm 7 mps 752 mmHg 80%
    08:00 0°C° 0 mm 7 mps 752 mmHg 78%
    09:00 0°C° 0 mm 7 mps 753 mmHg 76%
    10:00 +2°C° 0 mm 7 mps 753 mmHg 73%
    11:00 +2°C° 0 mm 7 mps 754 mmHg 73%
    12:00 +2°C° 0 mm 7 mps 754 mmHg 73%
    13:00 +2°C° 0 mm 7 mps 754 mmHg 72%
    14:00 +2°C° 0 mm 6 mps 754 mmHg 74%
    15:00 +2°C° 0 mm 6 mps 753 mmHg 76%
    16:00 +2°C° 0 mm 5 mps 753 mmHg 77%
    17:00 +3°C° 0 mm 4 mps 752 mmHg 79%
    18:00 +2°C° 0 mm 3 mps 752 mmHg 81%
    19:00 +2°C° 0 mm 3 mps 752 mmHg 82%
    20:00 +2°C° 0 mm 3 mps 751 mmHg 82%
    21:00 +2°C° 0 mm 3 mps 750 mmHg 81%
    22:00 +2°C° 0 mm 3 mps 750 mmHg 80%
    23:00 +1°C° 0 mm 4 mps 748 mmHg 82%

    25 February, Tuesday

    Time Temperature Precipitation Wind Pressure Humidity
    00:00 +1°C° 0 mm 5 mps 747 mmHg 83%
    01:00 +2°C° 0 mm 6 mps 746 mmHg 84%
    02:00 +2°C° 0.8 mm 6 mps 745 mmHg 86%
    03:00 +3°C° 0.8 mm 6 mps 744 mmHg 88%
    04:00 +4°C° 0.8 mm 7 mps 743 mmHg 89%
    05:00 +4°C° 0.3 mm 7 mps 743 mmHg 89%
    06:00 +5°C° 0.3 mm 7 mps 742 mmHg 90%
    07:00 +6°C° 0.3 mm 7 mps 742 mmHg 90%
    08:00 +8°C° 0 mm 7 mps 742 mmHg 85%
    09:00 +7°C° 0 mm 8 mps 742 mmHg 81%
    10:00 +9°C° 0 mm 8 mps 742 mmHg 77%
    11:00 +9°C° 0.1 mm 8 mps 741 mmHg 72%
    12:00 +10°C° 0.1 mm 8 mps 741 mmHg 67%
    13:00 +11°C° 0.1 mm 8 mps 741 mmHg 61%
    14:00 +10°C° 0.1 mm 7 mps 740 mmHg 65%
    15:00 +10°C° 0.1 mm 7 mps 740 mmHg 68%
    16:00 +9°C° 0.1 mm 6 mps 739 mmHg 72%
    17:00 +8°C° 1.1 mm 6 mps 739 mmHg 75%
    18:00 +7°C° 1.1 mm 6 mps 739 mmHg 79%
    19:00 +5°C° 1.1 mm 7 mps 739 mmHg 82%
    20:00 +5°C° 0.2 mm 6 mps 739 mmHg 79%
    21:00 +5°C° 0.2 mm 5 mps 739 mmHg 75%
    22:00 +4°C° 0.2 mm 4 mps 739 mmHg 72%
    23:00 +4°C° 0 mm 4 mps 739 mmHg 72%

    26 February, Wednesday

    Time Temperature Precipitation Wind Pressure Humidity
    00:00 +3°C° 0 mm 4 mps 739 mmHg 72%
    01:00 +2°C° 0 mm 5 mps 739 mmHg 72%
    02:00 +1°C° 0 mm 5 mps 739 mmHg 75%
    03:00 +1°C° 0 mm 4 mps 739 mmHg 78%
    04:00 +1°C° 0 mm 4 mps 739 mmHg 81%
    05:00 0°C° 0 mm 5 mps 739 mmHg 81%
    06:00 0°C° 0 mm 5 mps 739 mmHg 82%
    07:00 0°C° 0 mm 5 mps 739 mmHg 82%
    08:00 0°C° 0.1 mm 5 mps 739 mmHg 82%
    09:00 +1°C° 0.1 mm 5 mps 738 mmHg 83%
    10:00 +2°C° 0.1 mm 5 mps 738 mmHg 84%
    11:00 +2°C° 0 mm 5 mps 738 mmHg 80%
    12:00 +3°C° 0 mm 5 mps 738 mmHg 77%
    13:00 +4°C° 0 mm 4 mps 738 mmHg 73%
    14:00 +4°C° 0 mm 3 mps 738 mmHg 72%
    15:00 +4°C° 0 mm 3 mps 737 mmHg 72%
    16:00 +5°C° 0 mm 2 mps 737 mmHg 71%
    17:00 +4°C° 0.4 mm 3 mps 738 mmHg 77%
    18:00 +3°C° 0.4 mm 3 mps 738 mmHg 84%
    19:00 +2°C° 0.4 mm 3 mps 738 mmHg 90%
    20:00 +2°C° 0.6 mm 3 mps 739 mmHg 91%
    21:00 +1°C° 0.6 mm 3 mps 739 mmHg 92%
    22:00 +1°C° 0.6 mm 3 mps 740 mmHg 94%
    23:00 0°C° 0.2 mm 4 mps 740 mmHg 92%

    27 February, Thursday

    Time Temperature Precipitation Wind Pressure Humidity
    00:00 0°C° 0.2 mm 4 mps 740 mmHg 91%
    01:00 0°C° 0.2 mm 4 mps 741 mmHg 89%
    02:00 0°C° 0 mm 4 mps 741 mmHg 90%
    03:00 -1°C° 0 mm 4 mps 742 mmHg 91%
    04:00 -1°C° 0 mm 4 mps 742 mmHg 92%
    05:00 -2°C° 0 mm 4 mps 743 mmHg 91%
    06:00 -2°C° 0 mm 4 mps 743 mmHg 91%
    07:00 -2°C° 0 mm 5 mps 744 mmHg 91%
    08:00 -2°C° 0.1 mm 5 mps 745 mmHg 89%
    09:00 -1°C° 0.1 mm 5 mps 745 mmHg 88%
    10:00 -1°C° 0.1 mm 5 mps 746 mmHg 87%
    11:00 -1°C° 0.1 mm 6 mps 747 mmHg 80%
    12:00 +1°C° 0.1 mm 6 mps 747 mmHg 73%
    13:00 +1°C° 0.1 mm 6 mps 747 mmHg 67%
    14:00 +1°C° 0.1 mm 6 mps 748 mmHg 66%
    15:00 +1°C° 0.1 mm 6 mps 748 mmHg 66%
    16:00 +1°C° 0.1 mm 6 mps 749 mmHg 66%
    17:00 0°C° 0 mm 5 mps 749 mmHg 70%
    18:00 -1°C° 0 mm 4 mps 750 mmHg 74%
    19:00 -1°C° 0 mm 3 mps 750 mmHg 77%
    20:00 -1°C° 0 mm 3 mps 750 mmHg 78%
    21:00 -1°C° 0 mm 2 mps 751 mmHg 79%
    22:00 -1°C° 0 mm 2 mps 751 mmHg 80%
    23:00 -1°C° 0 mm 2 mps 751 mmHg 82%
    Show more